TimeCST,TemperatureF,Dew PointF,Humidity,Sea Level PressureIn,VisibilityMPH,Wind Direction,Wind SpeedMPH,Gust SpeedMPH,PrecipitationIn,Events,Conditions,WindDirDegrees,DateUTC
12:55 AM,35.6,28.9,77,30.36,10.0,NNE,2.3,-,N/A,,Scattered Clouds,30,2012-12-31 06:55:00
1:55 AM,35.1,29.1,79,30.36,10.0,NNE,3.5,-,N/A,,Scattered Clouds,30,2012-12-31 07:55:00
2:55 AM,38.8,29.7,70,30.36,10.0,NE,4.6,-,N/A,,Scattered Clouds,50,2012-12-31 08:55:00
3:55 AM,39.4,29.7,68,30.34,10.0,ENE,6.9,-,N/A,,Partly Cloudy,60,2012-12-31 09:55:00
4:55 AM,39.0,30.4,71,30.34,10.0,NE,3.5,-,N/A,,Partly Cloudy,50,2012-12-31 10:55:00
5:55 AM,36.7,30.7,79,30.34,10.0,NE,4.6,-,N/A,,Scattered Clouds,50,2012-12-31 11:55:00
6:55 AM,39.4,33.1,78,30.34,10.0,North,3.5,-,N/A,,Scattered Clouds,10,2012-12-31 12:55:00
7:32 AM,39.2,33.8,81,30.32,10.0,NE,4.6,-,N/A,,Mostly Cloudy,40,2012-12-31 13:32:00
7:55 AM,42.1,35.4,77,30.33,10.0,NE,6.9,-,N/A,,Mostly Cloudy,50,2012-12-31 13:55:00
8:55 AM,47.7,39.4,73,30.35,10.0,NE,5.8,-,N/A,,Mostly Cloudy,40,2012-12-31 14:55:00
9:10 AM,50.0,41.0,71,30.34,10.0,NE,5.8,-,N/A,,Mostly Cloudy,50,2012-12-31 15:10:00
9:41 AM,51.8,42.8,71,30.33,10.0,ENE,5.8,-,N/A,,Overcast,60,2012-12-31 15:41:00
9:55 AM,52.9,42.4,68,30.34,10.0,NE,6.9,-,N/A,,Mostly Cloudy,50,2012-12-31 15:55:00
10:14 AM,53.6,42.8,67,30.33,10.0,NE,5.8,-,N/A,,Mostly Cloudy,50,2012-12-31 16:14:00
10:48 AM,55.4,44.6,67,30.33,10.0,ENE,4.6,-,N/A,,Mostly Cloudy,60,2012-12-31 16:48:00
10:55 AM,55.6,45.5,69,30.33,10.0,ENE,4.6,-,N/A,,Overcast,60,2012-12-31 16:55:00
11:55 AM,57.6,47.7,70,30.30,10.0,East,4.6,-,N/A,,Overcast,90,2012-12-31 17:55:00
12:55 PM,59.9,48.9,67,30.27,10.0,Variable,3.5,-,N/A,,Mostly Cloudy,0,2012-12-31 18:55:00
1:19 PM,60.8,50.0,68,30.24,10.0,Variable,6.9,-,N/A,,Mostly Cloudy,0,2012-12-31 19:19:00
1:55 PM,61.3,52.5,73,30.22,10.0,ENE,5.8,-,N/A,,Overcast,60,2012-12-31 19:55:00
2:33 PM,62.6,53.6,72,30.22,10.0,Variable,3.5,-,N/A,,Overcast,0,2012-12-31 20:33:00
2:55 PM,61.3,53.1,74,30.21,10.0,East,4.6,-,N/A,,Overcast,90,2012-12-31 20:55:00
4:35 PM,59.0,51.8,77,30.20,10.0,NE,3.5,-,N/A,,Light Drizzle,40,2012-12-31 22:35:00
4:55 PM,59.4,52.5,78,30.21,10.0,NE,4.6,-,0.00,,Light Drizzle,50,2012-12-31 22:55:00
5:55 PM,57.6,53.1,85,30.22,10.0,NNE,4.6,-,0.00,,Light Drizzle,30,2012-12-31 23:55:00
6:09 PM,57.2,51.8,82,30.20,5.0,NNW,2.3,-,N/A,,Light Drizzle,340,2013-01-01 00:09:00
6:55 PM,56.8,53.6,89,30.22,5.0,North,4.6,-,0.00,,Light Drizzle,360,2013-01-01 00:55:00
7:20 PM,57.2,53.6,88,30.21,5.0,North,3.5,-,N/A,,Light Drizzle,10,2013-01-01 01:20:00
7:55 PM,56.3,53.8,91,30.23,5.0,North,4.6,-,0.00,,Light Drizzle,10,2013-01-01 01:55:00
8:45 PM,55.4,53.6,94,30.18,10.0,ENE,5.8,-,N/A,,Mostly Cloudy,70,2013-01-01 02:45:00
8:55 PM,55.9,53.2,91,30.19,10.0,ENE,3.5,-,0.00,,Mostly Cloudy,70,2013-01-01 02:55:00
9:20 PM,57.2,53.6,88,30.18,10.0,ENE,3.5,-,N/A,,Mostly Cloudy,60,2013-01-01 03:20:00
9:55 PM,57.0,52.9,86,30.19,10.0,East,5.8,-,N/A,,Mostly Cloudy,100,2013-01-01 03:55:00
10:55 PM,57.2,52.9,85,30.14,10.0,ESE,9.2,-,N/A,,Mostly Cloudy,120,2013-01-01 04:55:00
11:55 PM,56.3,52.7,88,30.13,10.0,ESE,6.9,-,N/A,,Mostly Cloudy,120,2013-01-01 05:55:00